Theta_e
319 319 319 319 319 319 319 320 320 320 321 321 321 322 322 322 322 323 323 323 323 322 322 321 321 321 320 321 320 320 319 319 321 321 321 323 332 339 338 328 332 338 334 337 339 337 338 339 337 340 338 340 338 337 342 342 345 343 332 330 325 324 325 328 330 326 331 331 333 336 338 337 334 338 340 344 340 341 337 338 343 345 345 345 347 348 348 349
319 319 319 319 319 319 319 319 320 320 320 320 321 321 321 322 322 322 322 322 322 322 322 322 321 321 321 320 320 320 319 320 320 321 320 332 337 341 340 334 336 337 337 336 336 334 336 335 336 338 335 332 340 334 341 337 344 337 332 331 322 330 327 336 332 336 332 334 335 337 340 336 336 339 340 338 335 337 337 338 341 342 345 347 346 346 346 347
319 319 319 318 318 319 319 319 320 320 320 320 321 321 321 321 322 322 322 322 322 322 322 322 321 321 320 320 320 319 318 320 322 320 329 339 343 337 337 336 335 340 333 336 337 336 335 335 336 336 333 331 335 331 336 334 339 337 334 327 328 334 333 334 335 335 337 341 337 338 339 338 337 339 339 336 334 336 335 336 338 340 341 343 344 344 344 344
319 318 318 318 318 318 318 319 319 320 320 320 320 320 321 321 321 321 321 321 321 322 322 321 322 320 321 320 319 321 321 321 320 327 335 344 344 345 337 335 336 336 335 340 339 336 336 336 335 335 331 327 330 333 332 334 330 334 332 327 331 334 331 333 337 337 336 338 338 339 339 336 336 341 337 338 333 333 336 340 340 339 341 342 342 343 342 342
318 318 318 318 318 318 318 319 319 319 320 320 320 320 320 320 320 320 321 321 321 321 321 322 321 321 320 320 318 322 321 309 316 326 332 348 349 349 340 336 337 330 334 341 341 335 333 332 333 332 329 325 327 329 330 334 336 334 332 333 334 335 333 335 338 337 336 337 338 338 335 338 339 341 337 337 337 329 336 341 344 344 343 342 342 342 343 342
318 318 318 318 318 318 318 319 319 319 320 320 319 319 319 319 320 320 320 320 320 321 321 322 322 321 321 320 320 321 320 301 317 321 349 346 353 351 342 337 338 331 329 338 338 332 329 329 331 327 325 326 324 324 328 332 337 324 332 333 335 338 336 336 338 337 337 336 337 337 338 342 337 338 339 338 335 338 345 342 345 345 345 344 345 344 342 341
318 318 317 318 318 317 318 318 318 319 319 319 319 319 319 319 319 319 319 320 320 321 321 322 322 321 320 319 322 321 319 314 319 323 350 347 338 347 341 339 339 332 328 334 335 329 328 327 329 327 324 324 324 325 328 327 332 330 327 334 334 337 335 340 338 337 337 335 336 340 341 337 337 333 339 339 337 346 348 344 345 346 345 345 344 343 342 342
317 317 317 317 317 317 317 318 318 318 319 318 319 319 319 319 318 319 319 320 320 321 322 321 322 322 320 321 321 322 319 312 320 325 352 348 343 339 338 328 326 328 328 332 333 328 327 324 324 327 322 321 322 323 328 325 326 325 325 330 334 338 338 340 338 337 336 335 339 340 336 337 337 336 337 337 342 342 344 346 346 346 345 344 344 343 343 342
317 317 317 317 317 317 317 317 318 318 318 318 318 318 318 318 318 318 319 320 321 322 322 323 322 321 321 321 316 313 312 318 322 324 328 336 331 330 326 324 326 327 329 334 335 329 327 324 326 325 318 319 322 319 325 322 319 325 325 329 332 334 338 338 337 336 336 337 338 334 336 338 336 339 334 339 340 344 345 345 345 345 343 343 343 343 344 343
317 317 317 317 317 317 317 318 318 318 318 317 317 317 317 317 317 318 319 320 322 323 323 322 323 321 320 319 321 310 313 320 322 324 328 330 327 325 325 326 325 329 331 333 333 329 327 326 325 325 323 321 321 317 323 322 320 329 326 325 327 333 335 337 335 337 336 336 336 333 334 335 338 338 331 339 345 344 344 343 345 343 341 343 343 343 344 343
316 317 317 316 316 316 317 317 318 318 318 317 317 316 317 317 317 318 320 322 323 324 322 323 323 321 321 323 314 309 315 317 320 323 326 331 326 324 326 328 327 332 334 334 331 330 329 327 327 326 321 317 320 318 321 323 327 326 327 327 327 328 332 336 336 334 337 332 336 335 335 338 336 334 333 339 343 344 342 342 342 342 342 343 343 344 345 345
316 316 316 316 316 316 317 317 317 317 317 317 316 316 316 317 317 319 321 324 324 323 322 324 322 323 322 320 316 312 320 318 321 321 325 329 327 326 330 333 331 334 335 332 330 330 328 327 326 322 315 319 312 319 319 323 322 322 322 318 322 324 325 330 332 335 334 332 335 334 331 329 328 327 334 338 341 343 342 342 340 342 342 344 344 343 344 344
316 316 316 316 316 316 316 316 316 317 316 316 316 315 315 316 318 320 324 321 322 323 323 324 324 324 322 318 313 318 321 324 322 318 320 324 331 328 331 334 334 334 336 332 329 329 328 327 326 320 322 317 314 313 318 321 318 320 321 319 318 319 318 325 331 333 332 332 334 333 318 322 329 331 335 338 338 341 340 340 341 341 342 343 343 343 343 346
316 315 316 315 315 316 316 316 316 316 315 315 315 314 314 315 319 322 324 324 324 324 323 324 326 325 322 312 315 318 319 323 321 319 317 321 323 325 328 331 335 336 337 333 332 331 328 328 326 323 325 320 313 322 316 316 318 314 318 318 312 311 313 324 327 330 329 333 334 333 319 321 328 334 336 340 339 339 336 339 340 341 341 342 342 343 342 345
315 315 315 315 315 316 315 315 315 314 315 315 314 313 314 314 320 324 325 325 323 325 324 325 325 325 321 312 318 318 334 323 321 318 316 320 324 322 321 328 331 334 335 333 331 331 330 327 325 320 318 324 321 314 312 312 313 314 310 307 311 310 314 321 328 329 326 331 334 331 319 321 326 331 335 340 342 340 339 338 340 340 341 341 342 342 343 343
315 315 315 315 315 315 315 314 314 314 314 313 312 312 316 318 323 324 325 328 327 325 327 326 328 325 317 309 313 328 321 314 312 315 318 318 319 322 324 325 329 331 332 330 333 331 328 326 319 320 320 321 314 310 310 308 308 312 309 308 308 311 313 318 326 329 330 331 331 328 323 324 325 331 338 340 339 342 333 336 339 340 341 341 342 342 343 343
314 314 314 315 315 315 315 313 313 314 312 312 312 314 317 321 324 326 326 327 327 328 329 325 321 322 313 313 319 312 310 313 315 315 317 319 317 321 326 324 326 329 329 327 327 327 325 322 323 321 321 315 313 310 305 304 304 307 310 308 311 310 312 312 326 330 330 329 324 329 324 321 328 331 333 339 338 339 335 337 338 340 341 343 343 343 342 343
314 314 314 314 315 315 314 313 313 312 311 311 311 313 316 325 326 326 328 325 330 330 329 329 324 318 310 313 305 307 313 312 312 313 315 318 317 321 324 322 326 327 324 320 323 319 323 317 319 312 314 313 312 307 302 300 304 305 308 307 309 312 314 314 317 325 328 329 325 326 324 326 327 331 333 335 338 338 336 336 338 339 340 342 341 343 342 343
314 314 314 314 314 314 313 313 312 311 311 311 314 314 317 316 326 327 324 328 320 320 317 313 309 303 299 305 310 311 312 313 315 315 313 315 316 320 326 327 326 323 315 315 315 316 318 314 314 310 307 308 309 309 305 307 309 308 310 310 310 309 311 313 319 325 326 325 323 325 323 324 326 328 331 332 333 334 335 337 339 338 340 341 341 342 342 343
314 314 314 314 313 313 313 312 311 310 309 313 318 322 318 316 316 313 318 318 308 306 306 308 309 308 309 309 309 313 316 316 311 314 316 317 315 319 322 323 321 321 315 310 314 313 316 306 305 304 307 309 310 311 310 310 311 311 311 311 310 311 313 317 319 323 328 324 323 324 325 325 327 328 330 334 334 333 333 335 336 339 339 340 341 341 342 343
314 314 314 313 313 312 312 311 311 309 309 315 316 313 305 304 303 303 305 307 307 310 308 309 309 307 307 309 311 311 309 310 313 313 317 319 320 319 317 317 315 311 312 314 313 315 314 305 305 308 309 311 311 311 311 310 310 309 310 310 309 311 310 316 318 322 325 321 321 325 324 324 328 328 331 334 332 330 331 333 334 340 342 342 341 342 341 343
314 313 313 313 312 311 311 311 309 309 308 317 318 309 309 309 311 313 309 304 308 309 309 309 309 309 310 310 312 312 311 308 310 312 317 319 320 313 315 313 312 308 313 313 313 309 307 305 307 311 312 313 313 312 311 309 308 309 309 310 309 310 313 316 319 321 322 320 317 322 321 322 326 327 329 329 330 332 333 335 340 339 340 342 341 341 342 344
313 313 313 313 312 311 310 309 309 307 316 316 311 310 308 313 315 318 312 308 304 309 309 308 307 307 307 310 311 312 307 306 306 310 314 316 318 314 315 310 310 310 311 311 307 307 303 307 311 312 313 311 311 311 310 308 308 308 308 307 307 312 310 308 315 320 321 319 317 320 318 321 325 328 328 330 332 332 334 335 337 345 340 341 341 339 340 342
313 313 313 312 311 310 310 309 307 315 321 314 312 311 314 317 316 314 310 303 303 306 308 308 308 307 306 305 310 309 306 307 307 308 314 313 310 316 315 314 310 310 308 310 309 307 306 311 314 313 312 311 309 309 309 307 305 307 308 307 308 310 312 312 314 317 320 321 320 319 317 317 321 321 324 329 330 330 331 334 339 341 342 344 341 342 342 341
313 313 313 312 310 310 308 307 313 315 315 315 312 314 316 317 318 316 308 307 305 303 311 308 309 308 308 313 313 307 308 307 308 310 313 312 311 312 311 316 313 308 308 310 309 307 308 313 314 311 311 311 309 307 308 308 304 305 307 308 309 311 311 313 314 315 314 313 318 316 308 309 318 319 321 325 327 327 332 332 335 340 336 340 338 340 343 345
313 313 313 312 311 310 307 313 315 314 314 312 312 316 317 317 318 318 309 301 298 302 306 301 308 302 309 306 308 308 308 303 310 312 312 314 316 310 310 308 312 307 309 309 308 308 308 313 312 309 309 309 309 307 309 309 305 304 305 309 309 309 309 311 312 312 309 307 315 319 308 306 316 316 319 322 324 326 332 333 330 334 340 340 338 340 342 341
313 313 312 311 311 308 313 312 316 316 312 311 315 317 316 316 323 315 301 298 294 302 302 304 305 303 308 306 307 308 296 301 311 313 312 315 309 315 305 306 310 311 313 313 308 304 310 310 310 309 308 308 307 305 309 309 306 303 309 310 309 307 306 309 311 312 311 316 317 317 314 308 308 314 320 322 321 324 330 330 331 328 338 339 340 339 342 341
313 312 311 310 308 308 313 314 316 312 311 313 317 316 317 319 320 315 302 289 290 304 300 303 304 310 308 307 308 303 303 307 303 308 313 314 312 309 306 304 305 308 310 310 301 309 309 307 308 307 307 306 305 308 310 311 307 306 309 309 308 307 307 308 310 311 312 311 308 312 316 309 308 315 321 320 318 321 323 328 329 329 332 336 339 338 341 343
312 312 311 310 308 306 314 315 314 312 315 317 317 317 316 322 313 305 298 289 301 301 307 300 310 307 306 307 305 304 304 307 301 307 312 313 314 311 305 306 306 306 309 310 304 309 311 310 310 309 307 305 308 311 311 310 305 309 310 311 309 309 308 307 306 307 309 308 304 310 313 306 308 314 315 320 319 318 321 327 329 330 333 333 335 337 338 343
312 311 310 309 310 319 319 320 316 317 318 317 317 318 316 313 308 297 292 286 303 295 302 303 303 300 304 302 302 303 302 304 305 307 309 308 311 311 308 311 307 305 304 308 308 310 312 316 314 310 307 309 310 311 311 310 310 311 310 308 307 307 307 307 306 305 304 299 304 310 312 310 304 312 314 314 316 319 322 325 332 333 333 336 339 340 337 341
310 310 309 309 314 316 314 312 315 318 318 319 318 316 313 309 299 295 289 295 302 299 303 301 299 304 300 299 299 302 302 302 303 304 304 309 305 307 307 305 309 304 303 303 304 308 310 312 310 311 313 312 312 309 311 311 311 309 307 305 305 304 306 305 304 305 297 295 303 308 310 312 303 309 316 320 322 323 323 323 328 330 329 332 336 335 340 341
309 307 309 311 315 317 310 311 316 318 319 319 315 311 306 296 300 290 290 302 293 297 298 298 300 300 299 300 299 299 299 301 303 303 302 304 304 303 304 299 303 297 296 298 298 305 304 306 311 313 315 311 309 307 308 310 310 308 306 305 299 298 300 295 299 295 294 295 303 307 310 307 307 313 317 319 321 323 324 324 330 331 332 334 337 340 339 338
308 307 306 312 315 315 317 319 319 320 319 316 312 309 301 295 290 297 297 298 293 300 297 301 299 298 299 298 298 299 301 297 301 302 302 302 301 303 304 303 304 302 295 301 299 299 301 308 308 310 312 313 310 303 303 304 307 306 304 302 298 295 295 291 295 298 298 301 305 307 310 305 311 314 319 319 322 324 325 326 327 330 331 332 336 340 341 342
307 308 315 318 318 319 318 321 320 318 314 315 309 305 299 291 292 302 297 298 296 301 299 298 299 299 298 296 298 298 297 301 299 299 300 300 302 299 302 303 302 301 301 300 297 300 295 297 303 307 304 313 310 308 307 307 307 306 308 305 302 301 297 293 296 293 295 299 302 306 304 303 304 310 320 321 323 326 326 326 328 330 333 334 335 337 338 344
306 312 318 320 320 321 320 318 319 317 315 309 304 300 293 293 298 296 297 297 299 299 297 300 297 296 297 297 299 299 297 296 300 298 299 299 298 300 301 301 302 302 302 296 300 301 299 300 307 310 310 313 309 311 312 309 308 309 309 309 304 301 307 299 302 300 300 299 300 303 301 309 310 319 321 324 323 323 326 327 327 327 331 334 334 336 336 338
310 322 321 319 316 317 317 317 317 316 312 307 301 297 295 297 294 298 296 300 299 296 297 298 297 295 296 297 299 297 300 296 298 297 298 298 300 300 302 302 300 302 300 297 301 296 299 297 306 309 311 310 311 313 311 311 300 307 308 302 305 311 308 304 305 307 306 302 299 307 306 307 314 316 318 320 321 321 323 325 325 326 331 334 334 336 337 336
318 318 314 316 315 317 318 317 317 314 312 305 300 296 299 299 300 299 300 298 298 298 297 292 295 294 294 294 296 297 298 299 298 297 294 300 297 301 299 301 302 301 302 300 299 304 297 299 306 307 305 310 314 314 313 312 312 309 303 307 312 313 311 305 298 303 301 298 300 304 302 305 304 301 315 316 317 320 321 322 324 327 329 331 333 334 336 338
316 318 315 314 315 318 318 318 315 313 308 303 298 298 302 298 301 300 301 300 300 299 295 294 295 296 293 294 294 296 298 294 297 297 295 299 294 303 301 300 303 301 302 304 299 301 304 296 302 306 307 309 313 312 309 313 314 308 307 315 305 300 299 304 302 296 297 297 300 303 305 305 306 306 311 313 315 318 321 323 323 324 326 328 329 336 338 335
317 316 310 314 318 317 317 319 314 311 307 300 300 298 300 299 301 300 301 300 299 298 295 297 294 296 296 293 296 297 297 292 295 295 293 296 293 300 300 300 300 303 303 303 300 301 304 295 299 307 306 308 309 308 301 305 311 312 313 308 312 308 304 301 302 304 304 298 298 300 304 302 309 310 311 312 316 318 319 321 322 323 324 325 328 329 333 337
316 310 308 316 318 318 319 315 311 309 304 298 299 299 301 299 300 302 303 300 299 298 297 296 297 294 296 298 296 293 297 297 295 295 294 297 295 300 299 301 298 300 302 302 300 304 299 304 294 302 307 306 300 305 302 305 304 305 305 304 307 308 311 308 307 303 301 300 300 300 298 304 311 315 315 315 315 317 318 318 321 322 324 324 325 327 331 336
316 309 308 317 318 319 317 312 306 304 303 303 302 299 300 299 301 301 302 301 300 302 298 297 297 295 296 294 294 299 296 296 296 295 296 297 296 294 299 300 300 298 301 301 300 302 299 299 294 299 300 300 301 308 308 308 308 307 304 304 307 305 303 300 299 307 304 301 297 300 299 308 311 315 316 316 319 318 319 319 319 321 321 325 326 328 330 331
312 305 306 317 318 317 312 303 304 305 303 300 299 301 300 302 301 300 301 302 300 299 302 298 299 298 296 297 297 296 296 295 296 295 296 294 297 296 298 301 300 300 298 297 299 303 303 301 299 296 298 301 304 308 310 310 310 309 308 306 309 309 308 303 296 301 305 304 306 306 302 307 317 318 317 316 317 318 321 320 319 320 322 323 325 326 329 333
309 306 315 317 318 315 309 303 304 304 301 300 303 301 302 302 300 300 300 302 298 300 298 299 298 296 298 297 297 296 296 294 295 294 296 296 296 299 300 300 300 299 300 299 301 302 304 298 296 297 302 304 306 307 308 310 309 306 307 309 307 305 307 306 305 307 304 305 302 302 300 306 314 321 318 318 320 319 322 320 321 320 321 322 323 326 329 332
309 309 311 316 318 315 306 299 299 300 300 301 302 300 301 301 301 300 299 300 298 299 298 297 298 299 295 299 297 294 297 290 295 295 294 296 295 301 301 300 300 297 298 299 296 303 295 299 297 294 294 296 299 303 303 307 308 305 305 306 308 308 308 308 309 311 304 305 305 301 296 304 313 319 319 318 317 316 317 318 320 320 323 323 324 325 327 335
310 311 311 312 316 312 304 304 302 300 299 300 299 299 299 299 300 300 299 299 300 300 297 297 298 299 297 299 297 297 298 295 292 296 295 296 296 300 300 300 300 298 299 302 301 302 297 297 296 290 288 287 287 289 293 298 301 304 306 307 308 307 306 304 301 305 298 306 307 303 302 309 315 317 316 316 316 318 318 319 320 322 324 322 324 326 335 335
307 302 307 309 311 309 308 308 305 302 299 299 298 297 299 297 300 301 299 299 299 300 300 299 299 299 297 297 295 295 295 297 294 294 295 295 296 298 300 300 300 299 301 301 301 300 296 298 298 296 293 292 296 299 300 303 301 299 303 305 305 308 309 308 305 302 299 306 304 308 308 309 310 313 316 316 317 315 315 320 322 320 321 324 328 329 330 339
310 303 302 300 307 306 304 305 303 303 300 302 297 298 296 297 298 299 301 298 301 298 299 298 298 296 297 296 294 294 296 295 297 296 296 296 298 298 300 300 300 301 300 299 301 299 296 293 296 297 297 298 299 299 303 301 297 299 300 300 302 304 307 306 302 300 309 304 298 309 313 309 311 313 315 319 324 324 325 326 326 326 324 325 327 330 334 331
302 304 307 306 300 297 301 300 304 302 302 302 299 300 296 295 296 295 299 300 300 301 296 299 297 298 298 297 296 291 293 294 295 293 296 296 297 299 298 300 298 300 300 299 301 298 295 291 295 296 296 298 299 299 301 301 300 299 299 300 299 302 304 303 305 308 308 303 301 309 312 311 312 313 318 322 325 325 324 324 328 329 330 333 335 330 325 326
309 307 305 308 303 303 302 301 303 301 300 301 299 299 296 295 294 296 297 297 298 297 299 293 295 297 298 299 297 294 296 291 290 295 295 296 296 297 295 298 299 300 300 299 299 301 296 293 295 296 295 296 298 299 300 299 299 300 300 302 302 301 303 305 305 306 306 308 309 309 312 312 315 319 320 321 325 324 325 328 329 331 331 332 333 334 329 329
302 303 302 307 306 303 303 303 301 300 298 299 297 297 297 296 295 297 299 297 295 296 300 296 296 297 298 299 300 296 296 296 296 294 298 297 297 298 297 298 296 299 299 296 297 300 295 292 296 296 294 294 296 298 299 298 298 297 299 301 301 302 303 305 306 307 308 307 308 309 310 310 316 325 324 324 326 325 326 325 327 330 330 330 331 331 333 333
309 311 308 303 301 301 303 303 301 300 298 299 297 297 297 297 296 298 297 300 297 295 297 295 297 298 300 300 299 298 300 300 300 299 300 299 294 299 296 298 300 297 299 296 297 297 296 293 296 295 290 291 295 295 297 298 297 296 297 299 300 300 299 302 303 306 305 304 306 307 306 308 315 320 323 324 325 325 323 325 327 329 329 331 331 331 332 333
311 312 311 306 299 301 300 302 302 301 297 299 299 298 297 297 299 299 296 300 300 301 299 299 299 298 298 298 297 299 302 302 302 302 302 302 302 301 301 299 299 297 297 297 299 295 295 293 291 292 289 289 294 296 296 297 296 292 293 297 300 302 303 304 306 308 308 309 306 303 305 312 316 323 320 322 323 325 326 326 327 328 331 327 329 334 332 333
Wind_Speed
22 22 21 21 21 22 21 21 20 19 19 18 18 18 18 17 18 18 17 15 13 13 11 12 10 10 12 11 10 9 8 10 10 10 12 12 6 8 3 5 4 11 10 11 14 15 15 14 15 11 9 9 9 10 8 9 6 2 4 5 5 2 7 4 7 5 10 8 9 9 11 10 11 13 8 12 8 7 12 10 11 12 9 6 18 21 23 22
22 22 22 22 22 22 22 21 20 19 19 18 18 18 18 17 18 18 17 16 14 13 12 10 10 10 10 11 9 7 10 10 11 11 15 4 4 3 5 4 4 14 14 14 17 18 16 17 16 14 11 10 9 10 8 8 9 8 4 3 6 2 8 8 2 17 7 4 9 11 11 11 11 10 10 11 11 12 12 11 11 12 14 17 21 23 24 23
22 22 23 22 22 22 22 22 20 20 19 19 18 18 18 17 17 17 17 16 14 13 12 11 9 10 9 10 8 7 8 10 11 11 2 6 6 9 8 9 8 13 16 16 17 17 16 16 15 14 11 10 10 11 11 8 9 9 4 3 5 7 7 5 2 5 13 19 12 11 8 7 12 8 9 8 13 11 11 11 13 13 17 19 21 23 24 23
22 23 23 23 22 22 23 22 21 20 20 19 18 18 18 18 17 17 16 16 15 13 12 11 9 8 9 9 6 8 9 11 6 10 7 6 10 10 11 12 12 13 18 16 14 15 13 12 13 14 10 11 9 12 10 7 7 7 8 5 2 8 8 2 5 7 5 1 11 9 9 8 10 8 9 11 10 10 11 10 12 16 18 20 22 23 22 23
22 23 23 23 23 23 23 23 22 21 20 19 18 17 18 18 18 17 16 15 14 14 11 10 10 8 8 6 4 7 7 7 7 7 11 6 3 10 13 14 14 16 19 15 14 15 13 12 13 13 11 9 10 10 11 10 8 7 9 9 4 8 10 0 5 5 5 1 5 9 10 11 9 9 8 14 7 8 7 12 12 15 19 20 22 22 22 23
25 23 22 23 24 24 25 24 23 21 20 19 19 18 18 18 18 17 16 14 14 13 12 10 8 9 8 8 8 8 7 2 4 8 8 4 4 11 14 15 15 16 19 17 14 14 15 13 13 12 11 11 10 10 8 11 9 9 9 9 11 12 6 4 3 4 7 5 4 8 8 7 9 7 7 12 9 5 6 10 11 16 18 20 20 21 22 23
24 23 24 23 24 24 24 23 23 22 20 19 19 18 18 18 18 17 16 14 13 12 11 10 9 8 5 1 9 9 9 3 4 9 8 4 1 10 13 13 13 15 18 16 16 14 16 14 14 12 11 11 12 10 10 9 10 11 10 4 5 5 7 1 3 2 2 2 4 4 6 10 9 9 7 12 7 18 20 13 15 16 18 20 22 21 21 22
25 24 23 24 24 24 25 24 23 22 20 19 19 19 19 18 18 17 17 15 13 12 9 8 8 8 5 8 7 7 10 2 7 9 10 7 7 11 12 12 16 16 18 17 16 16 15 16 15 11 11 10 7 10 8 11 11 12 12 9 8 2 5 3 3 6 2 2 3 4 9 6 9 6 5 12 10 4 14 12 15 17 18 19 20 22 21 21
24 24 24 24 25 25 24 24 23 22 20 19 19 20 20 19 17 16 16 15 12 10 8 7 7 7 8 7 9 10 4 7 7 8 4 4 7 12 15 13 17 17 16 16 15 15 14 13 15 13 10 11 11 9 9 10 10 13 13 11 7 6 5 7 8 5 6 2 3 7 7 6 8 3 9 9 8 9 13 14 15 17 18 18 19 21 21 20
25 24 24 25 25 25 25 24 23 22 20 19 19 20 19 19 17 16 15 13 11 8 6 7 6 7 8 8 9 9 7 8 5 6 5 3 8 12 15 12 18 17 15 15 14 15 15 10 14 13 15 11 9 11 8 12 6 2 11 13 12 8 6 6 8 7 7 7 6 8 10 7 5 5 7 9 11 10 13 14 16 17 18 18 18 18 20 20
25 25 24 25 28 28 26 25 24 22 20 19 19 19 18 18 16 14 13 11 8 5 6 7 6 7 8 10 9 3 2 7 4 3 5 2 8 11 13 12 16 14 14 13 14 15 13 13 12 8 8 9 7 11 11 9 14 9 6 7 10 12 11 8 9 10 6 6 6 7 9 5 6 9 1 3 9 11 14 14 15 16 17 16 19 19 17 18
26 26 26 26 27 26 25 26 25 23 20 19 18 17 18 17 14 12 11 9 6 5 5 7 9 6 9 9 7 8 6 4 2 4 2 1 7 9 10 10 14 13 12 12 13 13 13 13 9 11 6 4 11 7 12 14 13 13 12 11 11 12 13 14 13 11 10 5 8 6 7 6 5 9 5 8 6 13 13 14 15 15 16 17 18 17 17 17
25 26 26 27 28 28 26 26 25 24 21 18 16 16 16 15 13 10 8 6 4 5 6 6 8 7 8 8 5 6 5 0 1 3 2 3 2 6 8 7 11 13 11 11 11 12 13 13 11 13 14 5 6 5 9 6 12 11 11 10 11 12 13 14 14 14 14 11 17 12 6 5 8 6 6 6 7 7 9 15 13 14 15 15 17 16 16 17
26 26 27 28 30 28 27 25 25 24 21 17 17 14 15 13 11 10 7 7 3 5 7 8 8 8 8 3 6 4 2 2 3 7 1 1 6 6 8 9 8 10 10 11 9 8 12 12 12 14 12 12 8 7 7 9 8 11 11 10 11 10 11 13 14 15 15 12 12 11 6 3 6 9 13 9 14 12 12 14 14 15 15 15 15 16 16 17
25 26 27 28 28 28 28 26 25 24 22 17 16 15 14 13 9 8 5 7 3 5 8 6 8 7 7 4 4 6 1 5 5 2 2 6 6 6 9 9 10 11 11 9 8 8 8 11 12 12 11 11 16 10 8 9 9 10 10 13 11 12 9 13 17 17 15 13 13 12 2 8 7 14 14 11 12 14 5 8 16 14 14 16 15 17 16 17
24 25 27 29 28 28 27 26 25 24 23 19 16 15 14 10 9 6 6 10 3 6 7 7 8 8 11 2 6 6 8 6 4 4 2 6 4 7 7 8 9 11 8 7 7 5 8 11 13 10 10 11 13 9 9 9 10 10 12 11 13 12 11 9 16 16 18 10 14 14 8 8 9 14 15 11 12 9 9 13 13 17 17 16 16 15 16 17
25 25 26 27 28 28 27 26 25 24 24 20 17 14 10 9 5 8 8 6 6 7 6 5 5 3 6 6 4 5 8 5 1 5 6 6 5 3 7 8 10 11 9 8 9 6 8 9 8 10 12 11 10 10 10 11 11 11 12 12 12 14 13 10 10 15 17 13 9 15 6 2 8 12 15 19 17 13 10 19 18 16 15 16 15 16 17 17
26 25 24 27 28 28 26 25 24 23 24 23 16 17 10 4 7 8 9 7 7 7 6 7 7 6 6 1 2 9 7 6 3 2 5 4 7 5 7 9 9 11 10 10 9 10 9 10 9 10 10 12 12 12 13 13 13 12 12 13 13 14 15 13 11 12 15 19 18 17 12 16 13 11 17 15 16 15 16 17 14 17 17 17 15 16 18 17
27 27 24 23 24 25 25 24 23 24 22 21 22 8 9 8 7 9 8 5 6 6 6 5 5 4 7 7 3 6 5 4 1 8 9 8 8 7 7 6 9 12 11 11 10 14 11 10 10 11 13 14 15 15 16 13 12 14 13 14 15 13 13 15 12 10 15 16 15 13 13 13 13 9 9 15 17 17 19 13 7 14 18 17 16 16 16 17
28 27 24 23 23 24 25 23 23 23 21 18 11 2 6 4 6 4 7 11 5 8 7 6 3 4 6 4 8 7 7 8 9 3 4 2 7 9 9 9 10 12 12 11 12 15 10 13 14 15 15 16 19 18 16 17 13 10 13 15 16 16 14 14 15 13 12 13 16 15 15 16 16 14 14 13 15 16 14 8 11 17 16 17 16 16 17 18
24 25 25 24 23 23 24 23 24 22 22 13 15 8 6 10 9 3 12 7 4 3 6 3 5 6 7 6 6 9 6 6 2 3 2 5 7 8 9 10 11 12 12 13 11 11 12 14 16 17 18 16 16 17 17 17 16 11 10 13 14 17 15 13 12 15 12 12 13 15 14 11 13 18 19 16 15 15 15 15 18 18 16 16 16 16 16 16
25 25 25 25 24 23 23 25 24 21 24 10 9 8 5 8 6 6 7 3 6 2 4 2 3 5 4 3 3 7 7 6 7 4 4 9 8 11 11 11 12 11 12 14 11 12 14 16 16 18 17 15 14 16 17 17 16 13 12 9 11 13 15 14 14 16 14 13 12 13 15 14 16 11 14 19 17 14 15 19 22 25 16 14 14 14 14 14
26 27 25 26 26 24 24 24 24 19 10 7 5 6 7 7 6 4 6 8 11 4 6 3 4 2 4 1 1 5 10 7 2 5 6 8 6 12 7 9 11 11 12 15 13 12 13 14 18 16 15 16 15 15 16 16 15 13 11 11 10 10 12 13 11 14 15 11 12 15 16 13 14 14 14 21 19 16 15 14 9 9 15 14 15 15 15 17
27 27 25 26 26 26 23 23 25 13 8 5 3 7 5 5 7 6 7 6 5 10 6 3 5 3 5 7 5 9 8 5 8 7 3 8 8 4 9 8 11 12 12 15 18 13 13 9 16 17 16 16 18 15 14 13 14 16 14 12 12 12 12 12 10 12 10 13 12 12 13 12 14 15 18 16 16 15 17 16 13 22 15 15 15 14 15 16
26 25 26 25 26 26 24 21 10 2 6 7 5 6 7 5 6 7 7 6 8 5 4 6 5 2 4 3 6 10 1 4 5 3 3 7 5 3 9 6 9 12 13 14 16 17 15 14 11 18 18 17 17 15 16 13 13 14 18 15 13 13 13 14 17 10 13 13 16 15 11 13 12 15 17 16 17 17 17 24 23 10 14 16 14 15 14 13
25 24 25 23 25 26 26 8 2 7 10 3 8 8 6 7 3 5 7 5 5 9 7 7 3 3 4 4 4 2 4 5 3 3 3 4 7 10 3 10 8 11 14 14 13 11 13 13 12 10 18 18 18 16 15 15 12 13 12 18 18 15 14 13 13 7 10 10 12 17 15 11 12 17 17 15 18 22 23 17 16 16 10 10 12 12 12 13
26 25 24 23 22 21 11 2 10 10 7 5 8 8 7 6 2 6 5 6 8 6 5 8 5 5 5 4 8 3 9 6 1 5 6 7 9 5 10 7 9 9 10 7 8 12 12 16 16 13 14 17 16 16 15 15 13 12 7 11 17 18 18 14 10 13 11 11 12 17 14 12 11 14 17 18 18 18 18 19 17 16 18 15 13 13 13 17
26 26 23 23 22 13 7 10 10 6 6 8 8 8 8 4 2 4 5 6 2 4 3 5 4 2 7 4 8 8 8 5 10 8 5 3 7 7 8 10 11 8 12 10 14 6 13 16 18 15 15 15 16 14 13 16 14 10 11 6 6 13 18 17 10 10 12 12 12 13 17 13 13 11 15 18 19 19 20 18 18 18 18 14 13 13 16 18
24 23 23 23 24 24 8 8 7 7 6 7 7 8 6 0 7 5 5 9 6 2 2 3 2 5 5 5 5 4 6 1 9 6 1 5 8 9 8 8 11 14 12 14 13 9 10 15 17 16 11 14 12 13 16 17 15 14 14 7 8 8 12 16 14 12 12 13 15 14 17 16 11 9 12 16 18 19 19 19 19 18 18 18 16 19 20 16
24 22 22 21 18 8 7 9 8 5 6 7 8 8 5 6 6 7 7 6 5 5 2 5 6 3 5 8 6 1 7 2 5 5 6 6 8 7 10 9 8 9 12 12 15 15 15 12 14 13 14 12 13 16 17 18 16 10 15 12 6 9 9 10 12 12 12 17 17 17 20 16 11 11 13 14 15 16 16 16 16 17 16 18 16 15 16 16
23 22 21 18 8 7 8 7 4 6 6 7 9 10 6 6 7 6 9 5 4 8 3 2 3 5 3 6 4 6 5 2 3 4 6 9 9 9 6 9 7 10 10 11 13 14 19 18 12 12 14 11 14 14 13 12 14 14 10 12 9 9 9 11 10 12 14 17 15 18 19 20 18 11 12 15 15 14 13 16 21 20 20 19 18 18 17 16
23 22 21 12 9 9 8 7 12 8 7 9 9 7 6 7 8 8 2 6 8 7 1 6 4 4 3 0 7 5 6 5 1 5 6 4 2 7 7 7 4 9 10 10 11 13 16 17 14 12 12 16 15 14 12 14 13 14 12 12 13 9 9 11 11 15 16 15 11 17 19 18 21 13 12 14 16 18 19 16 17 23 22 21 20 17 14 14
25 22 23 14 11 7 9 6 6 7 8 9 8 7 7 6 8 6 4 3 4 6 6 3 5 4 5 10 4 4 3 7 6 4 3 6 9 4 4 8 9 8 9 5 11 13 12 16 20 17 14 15 15 15 12 13 14 14 14 13 13 12 12 11 13 10 11 15 15 13 18 19 13 16 19 18 14 17 18 18 18 21 23 23 21 19 12 10
26 22 10 6 8 7 6 7 5 6 9 8 8 7 7 7 6 6 4 6 7 2 2 2 4 4 4 6 6 5 6 8 4 4 5 5 7 7 6 2 3 9 10 11 10 9 12 14 19 20 14 15 19 17 14 10 13 15 13 14 13 12 10 12 11 15 14 9 14 20 14 13 18 11 13 21 17 12 14 16 16 18 18 16 17 19 21 24
29 20 11 10 11 11 9 6 5 6 6 8 7 8 8 7 6 3 1 7 5 2 2 2 7 7 6 7 4 0 5 2 4 5 7 6 8 11 5 4 6 6 7 9 7 10 15 13 11 23 16 15 17 19 18 15 12 13 14 12 14 15 10 11 8 12 11 12 12 15 16 8 10 7 13 13 19 18 9 11 14 17 18 20 18 18 17 13
21 5 6 7 4 5 6 3 4 4 7 7 8 7 7 4 6 6 6 6 2 6 3 5 6 8 5 4 5 1 7 8 3 4 5 7 7 4 8 4 5 8 7 8 9 9 11 12 14 12 26 21 19 17 18 16 13 12 14 17 15 11 14 12 11 11 13 11 13 9 11 15 10 11 12 15 17 22 17 11 12 14 20 19 16 18 19 18
7 4 7 2 4 6 5 4 3 5 6 7 7 7 7 6 7 5 4 6 9 8 6 9 6 5 3 2 1 4 4 8 7 3 6 5 5 4 2 2 3 6 7 8 9 10 10 10 10 11 17 21 18 19 19 20 17 11 16 13 12 15 15 12 11 9 11 12 11 14 16 12 15 13 13 15 13 14 20 18 15 12 16 20 18 17 16 17
9 6 5 3 7 6 4 4 4 5 7 6 5 6 5 3 7 6 4 3 5 5 7 6 3 1 6 2 7 7 3 9 5 2 9 3 1 3 1 4 5 5 7 7 7 5 7 10 12 6 12 12 18 17 18 20 22 20 12 10 14 14 17 14 10 14 13 13 9 11 14 13 15 12 12 17 17 14 14 17 17 16 16 17 18 22 21 21
9 7 5 8 7 6 4 3 5 5 7 8 1 6 7 3 5 6 5 6 3 8 9 5 9 4 4 7 10 6 4 6 9 6 6 6 8 5 4 4 6 7 8 8 8 9 8 10 10 9 11 10 13 15 18 18 20 25 20 15 13 13 13 14 13 9 9 12 12 12 13 12 10 10 14 14 17 18 17 16 18 19 19 17 15 17 21 22
8 8 5 7 9 6 3 8 7 6 8 4 2 4 4 4 4 5 3 4 2 6 5 6 2 7 3 7 3 7 11 10 4 6 4 5 4 11 5 4 7 9 9 10 11 9 9 7 12 10 11 12 14 11 14 14 16 18 18 15 12 13 11 11 12 14 10 10 10 9 12 10 9 9 11 14 17 19 19 18 16 16 17 19 19 17 17 18
5 8 6 10 8 7 8 9 11 7 3 4 4 7 4 6 3 6 2 2 5 4 7 6 7 5 6 7 6 7 6 6 9 11 8 9 10 4 7 7 7 9 10 11 9 8 9 9 13 11 12 15 13 11 17 19 18 15 15 16 16 15 16 17 16 13 15 11 7 10 9 6 13 11 12 12 7 7 15 19 17 17 18 15 16 18 17 17
9 4 8 11 10 9 8 10 4 4 3 4 5 4 5 5 5 4 2 5 5 4 6 6 8 7 6 9 10 7 8 9 9 9 5 9 7 7 10 5 8 9 9 8 8 2 7 7 10 12 12 11 16 17 16 20 22 20 18 20 19 15 16 15 14 15 12 13 11 10 8 7 7 5 9 13 11 9 5 14 17 16 16 16 15 18 17 15
4 6 5 10 10 10 9 3 1 1 4 6 5 6 5 6 5 5 11 9 6 6 5 7 8 10 2 6 5 8 7 9 7 8 7 5 7 9 10 10 10 10 9 8 11 4 8 7 9 12 13 14 16 12 13 15 13 15 16 17 21 21 18 15 14 13 13 13 14 11 11 6 8 6 4 7 9 7 7 5 6 11 13 14 15 13 14 15
4 6 4 7 11 9 9 2 3 3 4 3 6 7 8 9 10 5 2 2 5 4 5 4 3 3 7 6 6 8 4 5 2 9 8 6 4 9 11 6 8 8 9 5 6 8 7 6 10 9 10 10 12 13 13 14 14 14 14 15 18 21 23 19 16 5 11 16 18 14 12 11 14 7 6 5 4 5 7 10 12 10 9 12 14 15 14 15
7 6 3 7 5 8 7 6 3 4 3 3 4 4 8 6 4 7 5 4 4 5 4 2 4 4 6 2 6 7 7 9 8 4 8 7 8 2 2 5 4 8 6 7 8 8 8 7 6 11 13 14 14 14 12 11 14 14 18 20 23 20 24 20 18 6 7 7 15 14 13 11 10 14 11 10 5 4 3 2 7 6 5 6 5 5 5 6
5 4 6 3 4 3 7 4 6 4 4 3 3 3 2 3 9 7 11 4 4 7 3 7 2 4 6 5 6 7 7 6 7 4 4 5 6 7 5 5 8 8 6 8 11 8 7 9 10 10 12 12 7 8 10 10 9 10 15 25 22 23 16 11 7 9 11 10 13 12 8 9 16 14 8 9 11 11 10 1 7 10 11 8 3 7 6 4
5 5 6 4 4 5 7 6 6 5 4 2 1 8 2 3 5 5 3 4 3 5 6 1 5 6 1 3 5 7 7 7 8 9 8 7 5 7 7 12 11 10 2 5 10 7 8 10 13 15 18 17 17 17 13 11 14 15 15 13 20 23 17 18 15 15 12 12 14 13 10 10 8 10 11 6 10 10 9 7 6 10 8 9 8 4 5 3
3 4 3 4 5 4 2 6 5 4 4 3 4 3 3 1 4 3 3 2 6 1 6 5 4 1 5 6 5 6 5 7 6 10 6 4 7 7 6 5 9 2 4 8 9 10 9 11 12 15 18 18 18 18 17 13 13 16 16 17 18 16 17 18 22 19 17 13 11 12 14 13 10 3 11 13 6 7 9 7 6 4 8 8 6 4 2 8
6 4 6 4 2 3 4 4 3 5 5 4 4 3 2 3 2 3 6 4 3 2 1 4 3 5 4 5 5 6 5 7 6 4 3 6 8 8 8 7 6 8 8 9 8 7 8 11 14 13 16 18 18 17 15 16 16 15 16 16 13 15 17 18 17 20 24 19 12 12 11 11 14 8 4 6 6 7 8 7 2 4 8 6 6 6 4 7
6 6 4 6 5 2 2 2 2 2 5 0 3 3 1 1 1 4 2 4 4 2 2 5 5 5 6 7 5 6 4 5 9 10 5 7 8 8 8 7 6 4 6 8 8 6 8 9 10 11 12 16 18 17 17 18 15 16 16 15 15 13 13 18 19 20 23 24 20 17 17 15 9 6 8 7 5 6 6 7 8 4 2 5 8 8 8 6
6 4 3 5 1 3 3 1 1 2 2 3 0 1 1 2 3 2 5 4 5 5 4 6 6 7 7 7 6 7 6 6 6 9 9 9 10 6 6 3 4 6 5 6 6 7 6 9 10 10 11 13 14 16 18 19 17 17 18 17 16 16 15 15 15 16 19 20 18 18 17 16 13 7 11 9 9 7 7 6 5 7 10 8 9 9 9 8
3 3 3 4 4 2 4 0 2 3 2 4 4 2 2 2 2 4 4 2 5 3 4 6 7 7 8 7 5 6 6 8 10 10 10 10 11 12 11 11 11 9 7 8 4 8 7 8 9 9 12 12 13 14 16 17 18 18 18 16 17 18 16 15 15 15 17 19 19 16 17 15 9 11 11 11 12 9 8 6 9 10 9 11 11 9 8 10
Wind_Direction
342 341 341 341 339 337 336 335 333 332 331 330 327 324 324 322 318 317 315 315 316 312 312 302 302 293 283 284 290 288 289 269 274 231 232 249 350 95 111 109 190 210 214 217 199 176 186 195 201 190 200 215 216 234 220 214 231 215 238 251 253 105 281 147 243 177 147 164 162 192 153 149 146 140 149 123 170 132 145 173 131 112 124 175 134 142 143 143
342 341 341 341 338 335 336 334 333 332 330 328 327 323 321 320 318 313 313 315 314 313 305 307 293 290 282 277 282 287 271 268 264 257 247 110 113 250 159 192 185 211 205 212 192 185 181 191 195 186 203 215 205 233 189 216 199 220 225 277 325 9 234 212 278 104 116 238 173 183 164 164 144 166 155 161 158 148 156 134 138 120 126 130 135 140 147 149
342 341 340 339 337 335 334 332 333 331 329 327 325 323 320 317 312 311 310 311 314 311 305 296 295 281 278 278 277 268 271 271 251 255 94 88 242 202 201 207 208 217 207 200 193 190 193 189 190 190 204 223 200 228 204 208 190 217 248 260 234 230 291 309 51 84 137 164 213 164 173 168 138 159 177 174 140 158 156 145 143 135 133 138 138 147 150 155
341 340 339 338 337 336 334 332 332 331 328 326 325 321 318 313 311 309 308 311 309 308 304 296 284 277 272 275 283 271 256 279 253 99 65 177 234 210 197 203 211 217 215 221 193 202 203 195 197 200 208 229 203 231 200 204 211 173 209 241 241 266 248 13 39 19 77 252 155 153 175 127 172 160 191 125 155 175 145 158 153 143 143 140 147 149 153 156
339 339 337 336 336 335 333 333 331 330 327 325 323 321 315 312 310 306 308 307 308 302 300 294 280 267 268 272 282 258 272 264 99 54 41 21 258 204 190 196 207 209 212 220 199 212 208 204 201 205 227 223 232 207 232 215 221 261 237 228 133 271 320 273 78 5 20 84 177 161 171 156 190 157 188 162 143 180 134 165 159 144 142 146 153 153 158 160
340 337 336 336 335 335 338 333 329 328 324 322 322 318 314 312 308 306 307 305 302 298 292 285 274 265 256 254 247 244 259 8 63 39 34 337 231 189 183 191 202 213 207 222 206 203 206 207 204 205 220 238 226 222 208 238 190 245 241 244 184 226 200 274 343 20 299 133 200 167 173 143 174 157 190 92 83 282 211 154 156 150 147 149 153 155 161 164
340 336 338 336 335 335 335 332 330 328 324 320 319 317 313 312 309 307 307 304 297 296 290 275 266 259 266 239 237 250 250 333 78 45 96 94 156 173 172 186 196 211 208 217 205 201 205 205 205 208 225 230 248 233 237 222 224 247 274 332 232 219 251 24 302 284 220 222 151 186 160 180 162 175 168 114 181 223 151 186 146 147 151 150 156 163 165 165
340 338 336 337 335 335 335 331 329 330 324 321 318 314 315 309 311 308 306 300 298 293 287 277 262 256 232 244 244 229 230 60 47 33 122 100 147 151 162 184 187 197 206 214 198 206 198 210 202 209 229 230 221 239 228 238 231 236 241 244 277 248 260 263 246 233 321 200 207 186 186 172 169 153 174 152 154 165 122 131 139 143 149 158 159 163 166 168
339 337 337 335 336 336 332 330 329 329 324 321 317 315 313 313 310 308 302 298 299 296 282 260 246 248 230 279 267 281 105 50 14 12 42 145 126 156 170 172 189 193 204 213 207 209 204 209 211 214 220 227 247 249 223 245 231 231 249 258 250 255 246 215 216 250 254 249 183 184 186 164 140 184 184 146 145 134 124 141 142 147 153 158 165 165 165 170
339 337 336 335 333 335 331 329 329 327 324 321 318 315 311 312 314 307 301 298 296 291 257 231 230 225 231 252 270 263 78 316 0 32 11 56 148 164 188 181 181 197 207 209 208 212 208 207 219 205 254 270 257 238 238 220 275 76 237 238 259 262 231 209 244 223 217 243 168 203 156 189 113 329 157 176 124 144 141 141 145 155 158 160 162 171 165 172
339 337 335 336 336 335 331 329 327 325 324 322 318 315 313 314 312 308 302 298 292 253 232 220 213 226 250 254 282 331 339 283 348 359 36 63 148 180 193 184 187 203 214 205 216 213 212 232 208 234 241 260 269 250 232 231 247 255 273 278 262 255 249 240 223 230 225 241 228 241 90 343 158 185 56 197 157 145 156 151 155 157 163 159 166 167 168 173
340 338 337 335 336 334 331 329 326 324 322 321 318 313 316 316 311 309 304 301 264 222 221 222 201 242 267 276 265 16 341 1 296 334 153 170 182 190 198 192 194 214 214 209 215 215 224 228 222 229 227 155 253 273 232 237 244 253 257 261 250 237 237 225 232 220 222 238 241 210 117 112 213 185 207 191 171 167 160 162 158 162 161 162 164 169 169 173
340 340 337 336 336 335 331 329 325 324 321 319 317 316 316 313 308 302 311 269 194 231 221 213 222 248 273 251 75 52 334 338 129 269 276 195 187 188 205 214 208 221 224 233 212 218 225 233 234 231 241 268 265 244 19 292 237 251 248 257 257 248 238 216 214 220 212 181 223 165 203 187 192 220 178 195 184 148 195 166 170 166 163 164 166 169 172 172
340 340 338 336 336 333 331 327 325 321 317 317 319 313 315 305 299 303 284 301 143 252 227 224 245 252 259 312 104 93 252 222 202 229 119 209 219 181 208 212 225 222 230 245 250 222 226 231 239 246 252 245 237 14 252 234 241 237 239 238 247 244 239 209 207 205 215 188 193 161 221 221 174 216 197 184 161 181 205 191 178 168 168 164 170 165 176 172
338 339 338 337 335 333 331 328 325 320 316 319 319 315 309 298 294 291 286 214 216 223 236 236 232 256 233 128 123 147 229 281 212 143 294 222 204 165 211 202 210 216 217 234 248 248 233 226 235 238 236 236 265 288 261 239 213 226 232 221 225 242 242 215 190 200 211 176 194 172 126 226 194 213 173 172 178 181 226 204 180 173 170 170 167 168 174 172
338 338 339 337 334 333 330 328 324 319 315 320 319 314 301 280 277 264 234 289 193 227 225 238 213 236 290 200 80 114 207 257 358 0 291 245 205 241 166 195 196 203 208 214 243 235 225 224 224 228 239 225 237 237 253 221 221 218 228 226 221 222 238 233 183 194 206 189 183 190 200 174 203 214 156 172 182 162 147 225 204 178 178 169 169 170 174 171
338 337 338 336 334 331 329 325 322 316 316 319 319 306 284 270 258 241 253 244 204 215 239 279 323 246 285 67 194 220 4 356 3 232 173 232 234 254 173 177 192 186 195 206 217 227 202 223 207 240 236 239 212 226 240 226 218 211 209 237 228 221 217 237 167 194 191 198 201 212 197 163 252 183 170 172 178 161 188 225 188 186 177 173 172 171 174 175
336 336 336 335 332 329 326 323 319 319 316 318 311 299 285 258 266 263 237 226 230 228 244 265 295 259 206 279 3 352 335 355 351 308 222 181 229 214 203 190 178 189 189 200 198 211 183 209 204 223 208 224 221 210 222 219 212 208 201 218 230 231 224 218 200 183 207 190 203 199 185 193 188 182 170 182 174 164 206 213 202 187 179 174 177 173 175 177
335 334 333 332 329 327 324 320 320 320 319 314 294 277 232 269 251 238 259 191 219 202 213 157 240 280 23 20 18 327 348 31 277 219 159 214 194 216 196 201 183 183 193 202 176 210 179 215 202 223 216 204 216 214 216 229 224 230 209 219 229 228 213 223 206 198 206 200 218 207 201 197 154 170 156 174 185 188 200 205 257 213 176 176 177 177 175 178
334 331 330 331 330 326 325 320 321 320 325 324 311 208 203 224 197 185 216 229 253 343 332 339 323 310 238 27 352 344 267 246 222 34 163 176 190 188 191 191 178 201 199 205 168 206 176 209 203 209 214 208 213 220 227 236 255 254 238 225 226 232 238 216 200 205 194 224 215 217 211 202 178 169 181 184 191 203 195 184 236 211 187 177 178 176 176 179
332 330 329 328 330 326 323 322 321 318 321 306 291 314 23 7 330 39 343 310 352 329 328 4 337 327 350 324 348 333 341 129 355 93 101 177 206 184 173 200 182 203 206 210 195 187 203 215 217 214 217 221 215 220 232 242 248 264 278 257 225 226 237 223 202 197 200 221 220 222 232 213 222 174 175 187 203 202 195 186 215 240 182 179 178 177 179 178
332 331 328 328 326 329 323 323 316 317 309 277 287 24 36 27 356 334 310 287 159 156 259 284 293 278 106 331 350 321 277 284 137 107 133 230 168 226 142 223 192 213 194 211 195 189 208 220 220 217 217 226 227 218 227 234 242 243 243 249 258 226 229 240 208 194 201 213 229 220 231 231 212 173 181 186 187 200 207 200 208 191 186 180 177 182 181 179
331 330 329 327 327 327 328 316 316 310 302 300 36 12 26 346 336 333 284 290 279 186 237 258 236 335 2 130 313 302 269 267 45 127 115 240 190 240 164 215 208 225 204 207 208 196 214 221 225 221 216 219 227 228 220 226 240 241 226 240 237 246 222 214 234 192 191 209 219 214 225 228 228 175 215 196 191 196 203 231 244 263 175 179 187 186 177 191
330 330 328 328 326 326 323 320 305 288 239 330 60 31 2 332 327 330 282 261 294 165 240 122 292 311 15 319 46 301 303 66 264 103 145 245 250 186 246 232 233 220 226 206 222 219 219 221 211 224 216 216 223 218 222 218 223 228 242 234 239 239 229 247 195 192 203 217 243 237 225 227 220 215 198 193 183 184 197 208 209 213 187 177 177 182 193 186
329 330 329 328 326 322 323 318 291 291 6 240 76 23 0 328 317 320 289 256 230 187 138 181 270 159 0 278 222 273 63 255 276 320 348 265 302 181 237 244 249 226 230 214 221 234 231 227 213 210 219 214 222 219 217 222 226 223 227 241 245 247 256 222 251 223 191 216 210 222 233 231 228 225 224 191 187 185 199 201 188 166 188 175 186 187 186 190
328 327 329 326 325 327 312 294 43 355 293 7 1 357 342 334 323 289 273 265 227 135 179 168 243 119 309 165 311 318 283 243 99 24 312 349 329 288 322 239 223 242 219 232 224 232 239 222 233 221 211 215 216 226 215 220 231 227 215 215 237 258 261 266 234 233 245 227 202 206 229 229 207 223 223 214 199 186 202 187 203 177 179 177 193 185 182 194
328 327 328 326 324 336 318 15 347 286 274 76 355 349 328 324 43 242 244 221 234 123 198 83 230 82 278 36 287 289 247 98 279 167 219 128 261 164 254 250 199 246 276 244 228 223 221 234 224 201 226 219 216 219 217 209 228 233 232 208 217 231 247 254 257 240 242 250 255 208 211 245 231 213 219 218 212 211 180 188 186 183 175 182 181 176 184 197
325 327 326 324 319 325 287 304 300 317 20 341 341 324 332 339 262 234 248 268 127 152 144 136 23 104 262 342 257 294 343 311 253 137 279 84 258 184 237 267 267 232 217 251 241 212 211 219 232 208 216 223 220 216 208 210 224 238 224 241 244 226 231 244 249 250 249 255 242 237 212 228 236 233 212 215 218 209 201 187 187 191 183 189 183 189 189 199
323 324 324 322 320 298 262 252 292 310 0 337 322 330 321 355 239 252 269 267 94 166 4 131 6 219 276 217 237 348 300 9 286 63 259 222 233 298 235 230 256 269 268 235 247 245 211 229 219 231 212 225 222 214 220 221 224 226 254 220 224 236 235 235 239 241 253 247 245 233 234 232 223 219 224 212 222 213 207 194 188 183 182 180 188 197 199 192
322 320 321 322 316 253 218 229 253 294 319 333 318 312 315 247 228 228 210 244 117 142 261 59 248 27 295 291 181 5 259 101 291 311 253 278 147 209 254 311 286 266 252 251 254 260 264 187 232 227 214 224 227 223 221 222 227 226 231 235 204 238 239 232 234 242 248 246 240 233 245 239 239 217 221 217 210 221 206 194 173 186 181 179 189 199 209 189
319 319 317 323 292 345 317 250 94 345 333 313 309 296 259 233 244 261 249 56 193 85 209 64 43 233 300 304 210 100 224 246 281 310 241 189 223 235 254 217 224 255 251 252 246 239 246 260 202 229 227 214 239 235 214 227 214 220 217 226 225 215 226 231 225 219 236 243 235 232 238 239 238 216 226 213 207 216 228 212 182 178 186 195 191 193 201 196
317 316 313 311 283 312 285 321 348 330 322 304 299 277 235 234 218 250 293 106 259 102 278 83 112 355 299 260 261 358 328 258 61 287 293 301 259 217 164 278 171 229 228 225 238 220 233 232 240 212 222 225 209 240 212 203 216 211 216 217 217 214 204 216 212 214 221 236 224 225 226 238 241 246 248 212 205 201 204 220 174 182 184 178 192 184 191 191
316 314 308 280 253 241 257 306 316 304 294 285 283 255 239 252 252 235 180 219 93 352 99 282 15 312 345 270 185 338 226 279 39 264 284 253 276 231 347 292 335 305 297 247 235 223 220 224 225 236 206 204 223 215 208 199 201 208 209 208 207 213 206 215 212 228 234 228 234 231 215 240 245 237 233 257 219 204 200 209 211 186 186 184 182 176 178 233
311 313 301 233 228 253 288 272 273 297 282 271 256 248 238 250 242 43 338 56 66 114 109 345 301 250 246 313 20 347 268 141 286 323 267 250 223 243 145 134 330 275 260 271 272 232 228 204 212 216 220 184 209 223 219 217 191 211 211 215 214 223 214 210 213 215 223 236 209 223 238 222 223 225 215 219 249 232 202 200 217 185 176 179 183 177 185 184
309 302 262 255 242 239 245 292 304 275 268 251 243 250 248 241 269 72 110 80 75 357 226 74 263 280 198 205 95 240 333 305 122 299 240 243 225 233 214 89 17 324 285 286 252 271 261 259 203 197 225 195 207 211 232 225 224 201 209 222 224 221 236 244 215 229 223 219 229 201 224 220 231 242 230 217 213 235 226 209 215 188 172 172 188 174 185 197
301 236 217 241 289 348 310 299 276 258 248 243 249 238 244 5 25 11 40 325 3 298 2 254 249 253 248 212 141 236 128 287 0 300 266 226 344 319 50 356 1 11 324 289 331 272 242 246 264 214 200 208 200 200 214 229 227 188 201 214 220 226 241 247 263 256 244 238 233 217 211 219 242 239 236 228 213 212 212 204 221 198 165 165 184 175 184 185
310 299 222 257 328 342 328 286 280 248 238 255 258 247 32 78 20 359 32 339 9 343 280 289 160 266 25 324 332 143 30 297 254 307 261 127 211 180 22 47 15 325 340 330 294 272 295 294 275 258 209 205 208 199 213 217 243 234 206 210 212 235 247 250 247 220 236 235 224 215 221 207 205 226 198 222 225 207 205 201 205 204 176 171 181 186 188 194
310 298 307 329 1 324 323 315 274 235 246 250 247 15 325 4 55 27 3 318 243 200 295 262 103 264 259 296 259 87 8 298 94 173 297 191 3 44 276 291 87 326 329 314 289 293 322 282 252 246 291 229 208 219 214 228 220 246 248 181 210 193 220 228 244 235 217 221 238 214 225 227 206 213 187 201 205 207 211 204 201 194 192 188 182 176 189 195
274 263 211 40 358 351 306 306 272 242 251 250 190 221 95 40 24 24 31 312 21 316 265 49 320 90 320 277 316 25 224 239 13 275 253 159 237 63 20 13 311 347 320 305 269 276 271 268 277 234 219 247 224 213 220 202 208 230 242 257 218 231 221 215 219 255 248 229 217 227 215 227 209 212 201 203 199 207 210 209 209 209 203 203 196 189 186 188
258 250 89 20 19 321 320 252 262 242 236 280 297 66 82 92 20 51 1 324 347 281 3 343 116 298 199 267 112 240 297 336 302 303 324 0 302 100 309 76 330 312 331 302 280 286 274 273 269 262 228 236 227 211 231 228 209 202 223 227 231 231 219 229 216 223 232 240 230 224 220 220 220 209 211 208 203 202 207 210 209 213 216 207 205 201 192 185
324 283 63 2 9 334 278 255 235 247 295 76 22 55 46 34 78 88 30 15 313 200 325 331 321 316 0 354 291 336 333 249 272 269 262 244 249 203 55 357 345 325 316 291 274 250 249 240 251 256 249 221 236 211 222 232 231 215 216 221 220 217 210 213 217 205 225 232 240 231 238 219 205 200 208 215 165 200 205 209 210 211 218 215 199 204 205 191
279 310 34 359 345 303 301 273 60 304 298 41 66 357 72 326 240 66 257 105 291 18 123 307 237 223 304 288 340 315 263 272 275 273 254 266 75 289 88 346 10 321 308 287 285 59 343 320 282 258 251 246 230 229 215 228 233 230 220 220 219 224 226 216 222 212 212 223 244 251 254 233 57 132 192 201 208 186 198 204 205 204 213 215 213 202 201 197
346 35 54 349 336 308 300 73 356 345 35 63 149 116 196 171 316 91 308 48 297 105 292 249 22 1 347 327 299 280 286 278 271 263 273 267 292 5 34 7 3 306 299 260 273 33 353 260 256 257 273 273 256 246 278 249 260 269 265 252 223 220 220 226 219 218 226 212 217 219 233 219 129 150 183 192 224 180 183 188 219 210 204 208 208 211 189 192
347 359 80 40 335 319 258 277 114 80 67 70 329 63 345 35 326 23 297 101 342 312 319 332 316 138 317 292 285 284 19 276 257 300 277 340 278 22 319 10 347 304 308 34 319 19 284 223 249 246 237 238 248 251 269 262 240 243 239 227 241 230 228 237 238 257 267 225 211 214 209 217 120 134 66 65 151 211 216 199 199 211 201 204 200 201 199 187
282 235 265 73 20 5 28 12 5 113 139 117 166 131 154 131 43 333 352 13 302 311 323 0 330 319 275 332 286 300 292 298 302 270 296 268 260 258 268 323 319 295 297 17 333 311 285 283 249 237 227 218 215 216 224 231 233 244 246 238 217 230 235 229 226 203 239 260 247 212 214 224 157 141 162 207 232 279 298 204 167 229 219 217 186 192 35 234
337 22 357 57 32 87 107 14 23 85 113 138 141 181 266 116 149 126 287 24 72 294 228 321 209 248 267 281 295 288 283 269 272 296 298 282 284 280 310 295 273 271 340 353 310 280 266 264 251 259 261 257 277 343 303 283 295 280 247 227 223 221 228 253 261 242 228 222 234 227 243 205 214 187 165 199 207 200 193 84 346 191 187 218 55 355 183 81
309 26 350 17 292 52 41 36 49 337 71 26 352 359 54 340 29 119 22 292 111 342 317 245 335 283 28 326 264 258 250 248 230 252 245 263 275 282 281 282 291 275 122 274 255 266 259 264 255 252 257 266 276 279 285 301 290 284 283 298 300 245 216 232 234 231 233 224 226 222 239 282 262 159 171 118 67 61 65 50 58 19 75 81 77 93 8 142
15 57 11 14 323 27 8 68 44 75 64 315 77 243 7 351 360 330 128 84 295 345 296 129 221 325 316 298 318 268 269 271 305 284 318 281 308 279 271 249 260 200 153 266 253 234 251 258 253 257 253 257 264 270 263 260 289 287 294 297 302 274 209 237 227 227 231 222 221 211 227 242 251 30 82 89 52 40 37 40 31 78 86 69 43 19 204 172
15 61 52 287 229 47 55 32 21 68 61 29 84 357 87 358 30 11 328 314 311 327 330 291 293 283 302 286 286 307 315 288 251 172 298 298 292 304 280 261 227 274 270 266 256 257 265 255 265 271 274 271 263 261 269 275 271 271 264 266 276 296 233 221 239 239 235 229 225 261 263 250 250 48 14 60 29 7 15 352 325 112 56 27 13 354 8 352
43 329 77 50 59 69 80 168 146 166 89 51 268 48 321 353 359 321 275 301 280 260 310 282 298 306 302 289 275 265 296 297 305 300 310 288 274 265 288 289 299 221 256 274 282 256 249 247 246 253 263 260 255 258 259 254 253 263 264 259 260 264 261 239 234 238 237 235 229 239 255 251 228 115 19 334 341 342 342 2 3 44 326 7 353 343 16 358
61 39 340 320 82 50 345 68 174 115 110 67 190 103 292 36 11 349 303 298 288 303 320 297 314 309 282 275 271 270 287 281 274 268 277 267 273 289 282 282 270 280 239 244 253 278 267 260 258 261 265 256 259 268 258 249 251 252 254 250 249 247 246 238 239 233 231 226 225 232 240 245 247 269 8 317 322 322 316 350 337 12 352 336 327 332 356 349
67 91 301 308 82 351 285 89 39 259 61 45 12 61 321 36 330 340 288 296 319 287 294 311 315 309 279 259 273 299 304 294 287 289 281 285 281 271 259 263 262 263 263 265 254 253 262 276 262 261 254 260 265 266 251 249 247 238 235 243 247 251 256 256 251 247 242 232 222 222 229 234 257 13 321 324 318 338 341 349 352 339 337 315 316 338 351 330